Weather in Esenkoy

Turkey     40°37′18″N   28°57′24″E
temp.,
°C
wind,
m/s
gust,
m/s
humid.,
%
clouds,
%
prec.,
mm/h
press.,
hPa
HPBL,
m
4 december, sat
sat400:00+12se3978100 0.2 1015390
03:00+12ese378096 0.4 1014216
06:00+12ese2573100 0.0 1012154
09:00+11ese4780100 0.5 1013324
12:00+12ene2384100 1.8 101289
15:00+12s41182100 3.1 1011564
18:00+11sse3887100 2.1 1012388
21:00+11e2287100 2.4 101236
5 december, sun
sun500:00+12n1182100 0.1 101220
03:00+12ese118495 0.1 101219
06:00+11e228643 0.0 101116
09:00+11ese11846 0.0 101213
12:00+14sse12715 0.0 1012311
15:00+15sw01665 0.0 1011421
18:00+13e11734 0.0 101111
21:00+13ese22747 0.0 101216
6 december, mon
mon600:00+12ese22750 0.0 101216
03:00+12ese357575 0.0 1012165
06:00+11e347622 0.0 101158
09:00+12ese38747 0.0 1012312
12:00+16s411590 0.0 1012743
15:00+18ssw7125235 0.0 10101162
18:00+15ssw47595 0.0 1010184
21:00+14se2363100 0.0 101071
7 december, tue
tue700:00+13ese2365100 0.0 100964
03:00+13e4567100 0.0 100787
06:00+12e44674 0.0 100639
09:00+12e457348 0.0 1004114
12:00+13sw2477100 0.4 1003308
15:00+11sse31077100 6.6 1000539
18:00+11ene2381100 0.3 100158
21:00+10se1176100 0.3 100128
8 december, wed
wed800:00+10wsw1280100 0.2 100248
03:00+10ese127544 0.3 100219
06:00+9wsw117686 0.1 100314
09:00+9w4684100 0.3 1006391
12:00+8wsw2394100 1.4 1009340
15:00+8nnw128579 3.0 1010400
18:00+7ne3389100 0.5 1013201
21:00+8wsw228698 0.7 1015270